Starlink 4307

operational
NORAD ID: 53063 Int'l Des: 2022-077 Owner: SPXS Country: US Constellation: starlink
LEOCIRCULARRETROGRADESSO

Über Starlink 4307

Beschreibung wird geladen...

Live-Position

3D-Globus wird geladen...

Nächste Überflüge

Höhenverlauf

Altitude vs Time

uPlot chart will show altitude changes over time

Zweizeiliger Elementsatz

1 53063U 22077W 25304.23489415 .00000140 00000-0 13923-4 0 9992
2 53063 97.6042 123.5568 0002322 90.2595 269.8898 15.05648994 53083
Epoch: 31. Okt. 2025 • Age: 13 hours

Aktueller Status

Höhe 551.7 km
Geschwindigkeit 7.59 km/s
Subsatellitenpunkt 7.47°N, 166.32°E
Startdatum 11. Juli 2022
Alter 3.3 years
Typ internet

Technische Details

Klassifizierung Payload
Masse 297.00 kg
Trockenmasse 275.00 kg
Gesamtmasse 297.00 kg
Länge 0.20 m
Durchmesser 2.80 m
Spannweite 9.00 m
Form Box + pan
Hersteller SPXS
Bus-Typ Starlink
Phasenstatus In Orbit
Besitzer/Staat SPXS/US

Große Konstellationen

Loading constellations...